Skip Page Navigation
NASA JPL Caltech
NASA Logo - Jet Propulsion Laboratory + View the NASA Portal
+ Center for Near-Earth Object Studies
JPL Home Earth Solar System Stars & Galaxies Technology
JPL Solar System Dynamics
BODIES ORBITS EPHEMERIDES TOOLS PHYSICAL DATA DISCOVERY FAQ SITE MAP
IMPORTANT: The SSD Announcement email list is now available. Major changes are coming in the near future, including possible hostname and/or URL changes. To be notified of such changes, subscribe to this email list.

Please visit this page for more details.


JPL Small-Body Database Browser
Search: [ help ]  
437694 (2014 DQ29)
Classification: Main-belt Asteroid          SPK-ID: 2437694
Ephemeris | Orbit Diagram | Orbital Elements | Mission Design | Physical Parameters | Discovery Circumstances ]

[ show orbit diagram ]
Orbital Elements at Epoch 2458600.5 (2019-Apr-27.0) TDB
Reference: JPL 12 (heliocentric ecliptic J2000)
 Element Value Uncertainty (1-sigma)   Units 
e .02693772194257696 5.5599e-08  
a 2.759719499072227 3.6095e-08 au
q 2.685378942566712 1.5474e-07 au
i 5.366479527979292 7.7993e-06 deg
node 163.0194794485738 5.8915e-05 deg
peri 252.7870469748357 0.00018785 deg
M 137.7816278092992 0.00018474 deg
tp 2457959.608294845870
(2017-Jul-25.10829485)
0.00085389 TDB
period 1674.541210783366
4.58
3.2852e-05
8.994e-08
d
yr
n .2149842581847171 4.2177e-09 deg/d
Q 2.834060055577743 3.7067e-08 au
  Orbit Determination Parameters
   # obs. used (total)      143  
   data-arc span      5641 days (15.44 yr)  
   first obs. used      2003-11-26  
   last obs. used      2019-05-07  
   planetary ephem.      DE431  
   SB-pert. ephem.      SB431-N16  
   condition code      0  
   norm. resid. RMS      .57987  
   source      ORB  
   producer      Otto Matic  
   solution date      2019-May-30 10:10:39  

Additional Information
 Earth MOID = 1.70058 au 
 Jupiter MOID = 2.24487 au 
 T_jup = 3.335 
[ show covariance matrix ]

Ephemeris | Orbit Diagram | Orbital Elements | Mission Design | Physical Parameters | Discovery Circumstances ]

Physical Parameter Table
Parameter Symbol Value Units Sigma Reference Notes
absolute magnitude H 16.9   n/a MPO342201  

437694 (2014 DQ29)          Discovered 2005-Mar-04 by Spacewatch at Kitt Peak
Reference: Last Updated: 2015-06-04

Alternate Designations
 2014 DQ29 = 2005 GA83 = 2010 GP130 
Ephemeris | Orbit Diagram | Orbital Elements | Mission Design | Physical Parameters | Discovery Circumstances ]
ABOUT SSD CREDITS/AWARDS PRIVACY/COPYRIGHT GLOSSARY LINKS
FirstGov 2019-Dec-14 09:06 UT
(server date/time)  
NASA Home Page
Site Manager:   Ryan S. Park
Webmaster  Alan B. Chamberlin